Hourly Data Report for October 23, 2013

All times are specified in Local Standard Time (LST). Add 1 hour to adjust for Daylight Saving Time where and when it is observed.

CAPE DORSET A
NUNAVUT

64°13'49.000" N
76°31'30.000" W
48.20 m
2400637
71366
YTE

Download Data

Hourly Data (October 2013)
Hourly Data Report for October 23, 2013
Temp Definition
°C
Dew Point Temp Definition
°C
Rel Hum Definition
%
Wind Dir Definition
10's deg

Wind Spd Definition
km/h
Visibility Definition
km
Stn Press Definition
kPa
Hmdx Definition


Wind Chill Definition


Weather Definition


TIME
00:00 Legend Double Dagger -1.1 -1.2 99 10 5 11.3 100.71   -3 LegendNANA
01:00 Legend Double Dagger -1.3 -1.4 99 13 5 16.1 100.69   -3 LegendNANA
02:00 Legend Double Dagger -1.6 -1.7 99   0 0.8 100.67     LegendNANA
03:00 Legend Double Dagger -1.8 -1.9 99 6 5 0.8 100.68   -4 LegendNANA
04:00 Legend Double Dagger -2.1 -2.2 99   0 0.4 100.66     LegendNANA
05:00 Legend Double Dagger -2.7 -2.8 99   0 0.4 100.63     LegendNANA
06:00 Legend Double Dagger -2.3 -2.4 99   0 4.0 100.60     LegendNANA
07:00 Legend Double Dagger -2.0 -2.3 98   0 16.1 100.60     LegendNANA
08:00 Legend Double Dagger -1.8 -2.2 97 9 4 16.1 100.58   -3 LegendNANA
09:00 Legend Double Dagger -1.6 -2.2 96 10 4 16.1 100.57   -3 LegendNANA
10:00 Legend Double Dagger -1.2 -2.5 91   0 16.1 100.55     LegendNANA
11:00 Legend Double Dagger -1.0 -2.3 91 25 5 16.1 100.52   -3 LegendNANA
12:00 Legend Double Dagger -0.8 -2.2 90   0 16.1 100.50     LegendNANA
13:00 Legend Double Dagger -0.4 -1.7 91   0 16.1 100.48     LegendNANA
14:00 Legend Double Dagger -0.1 -1.1 93 36 5 16.1 100.47   -2 LegendNANA
15:00 Legend Double Dagger 0.0 -0.9 94 34 9 16.1 100.46   -3 LegendNANA
16:00 Legend Double Dagger 0.1 -0.8 94 34 8 16.1 100.46     LegendNANA
17:00 Legend Double Dagger 0.1 -0.8 94 35 9 16.1 100.46     LegendNANA
18:00 Legend Double Dagger 0.0 -0.9 94 35 9 16.1 100.47   -3 LegendNANA
19:00 Legend Double Dagger -0.5 -1.4 94 2 18 16.1 100.46   -6 LegendNANA
20:00 Legend Double Dagger -2.3 -3.0 95 36 15 16.1 100.46   -7 LegendNANA
21:00 Legend Double Dagger -3.3 -4.4 92 3 13 16.1 100.45   -8 LegendNANA
22:00 Legend Double Dagger -3.4 -4.4 93 1 21 16.1 100.47   -10 LegendNANA
23:00 Legend Double Dagger -3.6 -4.7 92 2 22 16.1 100.43   -10 LegendNANA

Notes on Data Quality.

Legend

  • E = Estimated
  • M = Missing
  • NA = Not Available
  • ‡ = Partner data that is not subject to review by the National Climate Archives
Date modified: